Regional Weather Roundup
Issued by NWS

Home | Current Version | Previous Version | Graphics & Text | Print | Product List | Glossary Off
Versions: 1 2 3 4 5 6 7 8 9 10 11 12 13 14 15 16 17 18 19 20 21 22 23 24 25 26 27 28 29 30 31 32 33 34 35 36 37 38 39 40 41 42 43 44 45 46 47 48 49 50

000
ASUS43 KTOP 061259
RWRKS

WEATHER ROUNDUP FOR KANSAS
NATIONAL WEATHER SERVICE GOODLAND KS
700 AM CST SAT FEB 06 2016

NOTE:  "FAIR" INDICATES FEW OR NO CLOUDS BELOW 12,000 FEET WITH NO
SIGNIFICANT WEATHER AND/OR OBSTRUCTIONS TO VISIBILITY.

KSZ001>006-013>018-027>032-041>047-061400-
NORTHWEST KANSAS

CITY           SKY/WX    TMP DP  RH WIND       PRES   REMARKS
GOODLAND       CLOUDY    21  11  65 SW14      30.23F WCI   8
HAYS           CLOUDY    18   7  62 W9        30.29F
HILL CITY      CLOUDY    16   9  74 W8        30.29S
RUSSELL        CLEAR     17  15  92 W8        30.29S
$$

KSZ061>065-074>080-084>089-061400-
SOUTHWEST KANSAS

CITY           SKY/WX    TMP DP  RH WIND       PRES   REMARKS
DODGE CITY     CLEAR     19  13  77 W7        30.30F
ELKHART          N/A     23  11  60 W8          N/A
GARDEN CITY    CLOUDY    18  14  84 W10       30.30S WCI   6
GREAT BEND     CLEAR     21  12  68 W6        30.32S
LIBERAL        CLEAR     19  12  73 NW10      30.32R WCI   8
$$

KSZ066>073-081>083-090>101-061400-
SOUTHEAST KANSAS

CITY           SKY/WX    TMP DP  RH WIND       PRES   REMARKS
CHANUTE        PTCLDY    28  23  81 NW5       30.30R
COFFEYVILLE    CLOUDY    36  30  79 N7        30.32R
HUTCHINSON     CLEAR     23  19  85 NW7       30.32R
MEDICINE LODGE   N/A     22  20  92 NW5       30.33S
NEWTON         CLEAR     27  19  74 W7        30.31S
PARSONS        CLOUDY    33  26  75 CALM      30.31S
WICHITA INTL   CLEAR     27  23  85 NW7       30.32R
WICHITA JABRA  CLEAR     27  25  92 W6        30.31R
WINFIELD       PTCLDY    25  22  88 N5        30.33R
$$

KSZ007>012-019>026-033>040-048>060-102>105-061400-
NORTHEAST KANSAS

CITY           SKY/WX    TMP DP  RH WIND       PRES   REMARKS
CONCORDIA      CLEAR     25  22  88 W6        30.29R
EMPORIA        PTCLDY    25  23  92 W7        30.29R
LAWRENCE       PTCLDY    22  19  89 NW9       30.30R
MANHATTAN      PTCLDY    20  20 100 SW6       30.30S
OLATHE IND     CLEAR     27  23  85 NW7       30.28R
OLATHE EXE     PTCLDY    28  22  78 NW7       30.27R
SALINA         CLEAR     26  22  84 CALM      30.30F
TOPEKA BILLARD PTCLDY    27  23  85 W5        30.31R
TOPEKA FORBES  CLEAR     26  22  84 NW6       30.29R
$$



USA.gov is the U.S. government's official web portal to all federal, state and local government web resources and services.